Location: Bijele Vode
(45.2833°N, 16.2000°E)
Time: 14:29:01
(UTC+00:00)

ARIANE 5 R/B - Pass Details

Date: 18 September 2020
Orbit: 620 x 657 km, 98.2° (Epoch: 23 October)

Event Time Altitude Azimuth Distance (km) Brightness Sun altitude
Exits shadow 19:37:43 37° 9° (N) 975 3.7 -27.0°
Drops below altitude 10° 19:40:29 10° 353° (N) 2,002 5.6 -27.4°
Sets 19:42:41 0° 350° (N) 2,911 6.6 -27.7°
